Theta_e
328 329 329 325 325 326 331 332 330 331 332 329 329 330 336 337 344 346 338 338 340 336 336 336 338 338 337 337 336 336 335 334 332 331 332 332 331 332 329 329 328 328 328 329 328 327 326 325 327
330 330 328 321 326 328 330 329 336 332 330 329 331 332 334 341 338 337 338 340 339 336 336 336 337 337 337 337 336 335 334 333 331 330 330 329 329 333 330 329 328 328 329 327 328 325 326 326 327
329 329 325 323 326 328 329 328 334 332 331 331 334 331 336 339 336 337 338 340 339 337 336 336 337 336 334 332 332 333 331 331 330 329 329 330 328 329 328 327 327 328 326 328 325 326 326 326 327
328 327 324 328 329 326 324 325 331 333 332 332 332 337 335 336 337 338 339 339 339 338 338 335 336 333 332 333 333 332 331 331 329 329 328 329 327 328 328 326 327 326 327 326 325 326 326 325 324
328 325 331 333 334 326 322 324 326 333 331 333 332 335 338 337 338 338 338 338 339 338 338 335 335 333 333 334 333 330 330 330 328 328 328 328 327 328 328 326 326 326 326 325 325 326 324 321 321
326 326 332 334 333 331 325 325 327 328 330 330 331 332 339 337 338 337 338 338 337 337 337 335 334 333 334 334 332 329 329 328 328 327 327 327 326 327 328 326 324 326 325 325 326 321 318 317 317
329 330 335 334 332 330 329 326 328 330 329 331 329 333 337 337 338 338 338 338 337 336 337 335 333 333 334 334 332 330 328 327 325 326 326 326 326 326 327 326 324 325 325 326 320 318 317 317 316
325 327 334 332 332 331 327 328 327 327 331 329 330 332 338 336 338 338 338 338 337 337 336 333 333 333 333 333 333 330 328 327 326 324 325 325 326 325 325 325 324 324 324 322 318 318 317 317 317
324 328 330 332 333 329 324 326 325 323 328 329 330 332 334 338 338 338 338 338 337 337 335 334 332 332 333 333 333 331 330 328 326 326 324 324 325 325 324 324 325 324 323 320 319 318 318 318 318
325 325 326 325 324 325 324 324 324 325 326 328 332 331 337 338 338 337 337 338 336 335 335 335 333 331 332 333 332 331 331 329 327 325 324 322 323 324 324 324 324 325 324 321 320 319 318 320 320
327 329 327 326 323 325 327 328 325 325 325 325 328 330 335 336 336 336 336 337 335 335 334 335 334 332 332 332 331 330 330 330 328 326 323 323 323 323 324 324 324 324 322 319 319 319 320 322 323
328 328 328 327 326 325 326 324 324 325 322 323 323 328 335 334 334 335 336 337 336 335 334 334 334 332 332 330 330 330 330 329 326 325 324 324 325 324 324 323 324 324 320 319 319 319 320 323 323
324 325 326 326 327 325 325 326 324 323 320 320 322 331 335 333 334 335 336 336 336 335 335 334 333 332 333 331 332 331 329 329 328 326 324 324 325 324 324 323 323 322 320 319 321 322 322 323 321
324 325 324 323 323 322 326 326 325 324 322 321 323 321 329 334 333 333 335 335 335 335 335 334 333 332 331 332 331 329 329 329 328 326 325 323 325 325 324 323 323 319 320 320 323 322 323 322 322
324 326 324 324 323 322 323 325 323 323 323 324 321 321 318 320 333 333 334 335 335 335 334 334 333 331 331 331 330 329 329 329 328 328 325 325 325 324 323 324 324 322 322 322 322 322 322 322 323
324 323 327 324 324 323 322 326 321 319 318 322 322 320 321 320 320 332 334 334 334 334 334 334 334 332 330 330 330 329 328 329 328 328 327 326 326 325 325 323 324 323 322 322 321 322 322 322 322
325 327 325 325 322 322 322 325 321 318 319 317 314 318 322 321 322 324 330 333 334 334 334 334 334 333 330 330 330 329 328 328 328 327 327 327 327 325 325 324 322 322 322 321 321 322 322 322 322
328 330 327 326 323 322 323 324 321 319 320 321 319 315 311 317 320 324 325 330 332 334 334 334 333 333 331 330 330 329 328 327 327 327 327 327 326 325 324 323 321 320 320 321 321 321 321 321 321
326 327 327 325 322 324 324 324 322 321 320 320 320 320 319 315 315 319 321 327 331 333 333 333 333 333 331 330 329 329 328 328 327 326 326 326 326 325 324 323 322 320 319 320 320 320 321 321 322
325 326 326 323 323 324 325 325 321 321 322 322 322 321 319 319 316 317 319 322 330 332 333 332 332 332 332 331 330 329 328 328 327 327 326 325 325 324 324 323 322 321 319 319 319 320 320 321 322
325 327 325 325 322 321 322 322 320 320 321 321 321 321 320 318 319 315 317 318 325 330 332 332 332 332 332 332 330 329 329 328 327 326 326 326 325 324 323 322 322 321 320 320 319 319 319 320 321
324 321 323 323 324 327 321 327 320 320 321 320 319 320 320 320 319 317 316 316 322 328 331 332 331 331 332 332 331 330 329 328 327 327 326 325 325 325 323 322 321 321 322 321 320 319 320 322 322
321 318 321 321 324 325 324 325 322 317 318 318 316 315 316 318 319 319 318 319 318 323 329 331 331 331 332 331 331 330 330 329 328 328 327 326 325 325 324 323 322 321 321 323 323 322 321 322 322
318 320 320 321 321 326 322 323 319 318 318 317 317 317 318 315 315 317 319 319 319 319 324 329 331 331 331 332 331 331 330 330 329 328 327 326 325 325 324 324 322 322 322 323 323 324 323 322 322
317 319 322 324 324 326 317 320 320 316 316 316 317 317 316 312 313 314 315 314 317 317 318 327 330 331 331 331 331 331 331 330 330 329 328 327 326 325 325 324 323 322 323 323 323 323 323 323 322
316 318 320 321 321 318 315 319 318 316 315 315 315 316 316 316 315 313 313 314 316 317 318 321 329 331 331 331 331 331 331 331 330 329 329 328 327 326 325 325 324 323 322 323 323 323 323 323 323
315 318 315 318 315 315 315 320 317 316 318 316 314 314 314 314 313 313 313 315 317 318 319 318 326 330 331 331 331 331 331 331 331 330 329 329 328 327 326 326 325 324 323 323 323 323 323 324 324
314 314 316 319 316 319 316 316 315 314 316 313 312 312 312 312 312 313 312 314 316 317 318 319 320 326 329 330 331 332 331 331 331 331 330 329 329 328 328 327 326 325 324 323 323 323 323 324 324
315 316 316 315 318 322 320 316 313 313 311 312 309 309 312 313 312 309 308 310 313 314 315 316 318 319 322 329 330 331 331 331 331 331 331 330 329 329 329 328 327 326 325 325 324 324 324 324 324
312 314 314 316 312 313 314 315 312 309 309 308 310 310 311 311 310 307 306 309 311 311 312 313 314 315 317 319 324 329 330 331 331 331 331 330 330 330 329 329 328 327 326 326 324 324 324 324 324
Wind_Speed
26 29 29 4 4 5 4 4 2 5 4 2 3 7 8 3 2 4 8 15 18 18 17 16 17 17 16 15 15 16 12 12 11 11 12 15 15 13 13 16 17 17 17 17 17 16 16 15 15
22 27 8 2 4 4 2 2 9 4 4 5 4 4 3 2 2 7 13 23 17 18 18 18 17 17 16 14 12 12 13 13 12 12 13 13 14 14 15 17 15 16 16 16 16 15 14 14 13
23 16 2 3 2 4 4 3 6 4 4 3 3 3 3 3 3 14 14 23 18 17 17 17 16 16 14 13 12 10 12 13 13 13 14 13 12 13 12 12 14 15 15 14 13 13 13 12 13
12 8 4 3 3 3 6 4 5 6 3 3 4 6 4 4 16 10 25 22 20 18 14 16 15 15 14 13 12 12 13 13 13 14 14 13 14 13 13 10 14 15 13 12 11 11 11 11 13
7 2 3 3 4 1 3 5 2 5 6 4 3 5 5 3 13 21 23 21 23 19 14 14 16 14 14 14 13 13 15 14 13 14 14 14 14 14 12 10 15 13 13 12 10 10 10 11 12
4 3 4 2 4 5 2 5 3 3 2 4 4 7 3 13 15 22 19 22 18 15 15 16 16 14 14 14 13 14 15 15 15 13 14 15 15 14 13 11 13 13 12 11 10 9 10 10 11
2 3 3 4 5 5 3 4 5 3 2 0 5 4 5 10 16 21 16 19 16 15 15 17 17 16 15 15 14 14 14 15 12 15 14 15 15 15 13 12 11 14 12 11 10 9 9 10 11
3 3 3 3 3 6 3 2 2 6 1 4 4 4 5 10 23 21 17 16 16 20 17 15 17 17 17 16 16 15 15 15 13 13 17 15 15 16 16 13 11 15 13 11 10 9 8 9 11
3 3 2 4 3 4 3 3 2 3 5 2 3 2 3 28 24 20 21 18 20 22 19 18 17 17 17 18 18 16 16 15 15 15 15 16 17 16 16 16 14 13 11 10 8 8 7 7 8
4 3 6 5 4 5 3 1 4 2 2 2 1 3 18 24 25 21 22 23 25 27 23 21 20 18 18 18 19 18 18 18 17 15 14 13 18 19 18 15 14 14 13 10 9 8 7 7 7
4 4 5 11 5 5 2 6 2 4 2 5 4 8 12 12 19 17 20 24 29 29 23 25 24 22 22 21 19 18 21 21 17 15 15 15 14 16 19 18 17 15 14 13 11 9 9 6 4
4 5 5 8 7 4 3 3 5 2 6 4 1 8 14 9 14 18 22 26 24 28 27 23 24 23 25 25 24 22 23 24 21 18 17 22 20 20 19 18 19 17 16 13 11 9 9 7 6
6 5 6 9 8 5 6 3 4 6 9 9 2 10 13 13 18 22 25 26 28 26 30 30 26 26 27 28 27 25 26 27 25 23 21 23 22 23 21 19 21 20 17 16 13 11 10 9 11
3 2 4 4 8 5 7 5 1 4 6 9 7 8 10 13 21 22 25 27 31 31 31 32 32 30 28 29 29 26 26 27 28 27 26 26 24 23 22 21 18 20 19 18 15 14 13 12 12
2 4 5 2 4 5 4 10 6 8 10 12 10 9 9 12 23 25 31 33 34 36 34 31 33 32 33 33 30 27 28 29 31 31 29 29 28 27 23 23 22 21 19 18 17 16 15 14 14
3 3 2 3 6 7 5 19 5 8 8 12 12 11 10 11 20 29 32 33 36 37 35 34 35 35 35 36 35 32 32 32 33 32 29 31 31 28 27 27 26 24 22 21 21 19 18 17 17
1 6 4 6 8 7 8 20 6 11 10 10 9 10 13 12 15 26 32 37 37 38 36 35 38 40 40 38 36 35 35 34 34 33 32 33 33 30 29 28 29 27 26 25 24 22 22 21 20
6 5 5 9 2 5 10 21 9 9 10 15 11 10 10 10 13 28 30 39 39 38 38 38 37 40 42 40 38 38 36 37 38 36 36 34 33 32 32 30 29 29 28 27 27 27 24 23 20
2 3 8 6 6 14 13 18 12 11 8 10 13 14 15 12 16 24 27 37 40 40 41 41 41 38 41 37 38 38 40 41 39 39 38 38 37 35 35 34 33 32 31 32 30 27 26 25 22
11 11 14 9 7 6 10 17 17 14 14 13 17 17 15 16 14 19 28 25 33 40 43 42 41 40 43 37 38 36 35 36 41 40 41 40 40 39 38 40 38 36 34 34 33 31 29 28 25
11 15 12 8 4 10 9 15 16 15 16 17 21 20 18 18 18 13 20 29 33 34 39 41 46 45 47 44 34 31 29 29 31 38 44 45 43 43 42 43 43 40 38 39 38 36 35 26 30
15 7 7 9 5 6 7 6 16 9 17 20 17 18 21 21 17 13 15 21 29 36 40 47 45 42 44 43 36 37 36 33 40 40 40 40 46 46 45 44 44 45 42 41 42 39 38 32 25
10 7 9 9 9 8 7 5 10 3 10 15 10 10 13 19 21 20 18 26 31 33 37 40 42 40 41 41 44 38 36 36 31 31 35 40 42 49 49 47 46 46 46 46 44 41 42 39 29
5 1 4 2 1 10 16 10 12 10 15 12 9 14 18 13 13 17 29 27 26 29 33 37 38 40 41 41 43 42 40 37 32 33 35 37 40 46 51 51 48 48 47 43 46 46 43 42 39
5 5 4 5 5 5 9 7 16 16 20 12 18 15 13 10 9 12 11 11 22 27 30 33 34 35 37 39 41 45 43 41 39 37 36 34 36 37 44 49 49 47 48 45 43 43 44 44 41
7 10 7 8 5 4 2 7 8 17 18 18 20 21 17 17 14 10 9 13 17 25 29 28 32 35 39 42 44 44 46 43 44 42 40 39 38 40 42 47 47 47 44 44 42 41 43 40 42
5 7 12 12 10 3 5 6 14 14 16 10 9 9 10 11 11 8 8 11 13 15 18 23 29 33 36 40 42 44 43 44 44 43 42 40 39 39 39 43 48 45 46 44 42 41 40 39 39
15 6 3 3 4 11 7 7 9 9 4 7 8 7 9 8 9 7 6 9 10 11 13 15 17 27 36 36 37 39 42 43 45 42 41 40 41 41 37 40 45 46 46 46 43 40 40 38 39
4 11 6 3 4 3 6 6 9 9 5 6 9 10 12 8 6 6 4 7 6 8 8 12 17 22 29 33 34 35 37 39 40 42 42 42 41 39 41 42 44 44 45 46 43 42 39 41 41
16 18 15 8 7 4 3 11 3 11 14 14 8 12 10 12 12 12 9 12 9 10 9 10 14 17 25 30 33 36 35 36 38 41 41 40 40 40 40 41 43 46 46 46 44 44 41 41 39
Wind_Direction
324 330 335 329 50 62 15 323 71 81 52 61 58 85 126 49 60 152 160 175 155 153 151 148 141 138 135 129 123 119 120 114 111 110 110 105 101 114 106 97 105 103 104 102 99 99 97 97 97
331 328 349 45 85 75 300 14 74 72 118 91 65 40 61 89 89 134 119 153 153 154 155 152 149 144 142 139 137 136 138 135 121 120 125 119 114 108 108 99 102 106 106 104 103 103 101 97 96
334 330 53 73 101 140 163 124 142 123 98 131 81 65 70 117 109 144 141 156 149 156 159 158 154 152 151 148 141 132 126 123 126 128 130 125 126 127 124 116 112 113 110 111 105 102 98 101 100
332 349 2 67 298 332 147 136 147 127 23 53 104 83 63 78 151 165 150 149 144 154 158 165 161 161 155 148 139 132 130 132 133 137 137 135 131 129 133 126 124 120 119 112 108 107 108 108 103
342 51 26 7 292 228 154 144 100 164 155 158 104 148 112 58 136 151 149 160 154 155 165 172 166 167 162 156 146 139 138 142 141 142 141 140 138 139 141 140 134 128 124 122 120 118 118 108 108
355 74 33 300 273 280 93 132 101 355 157 160 83 121 152 146 147 160 158 163 164 169 173 175 172 172 171 167 157 148 148 155 144 148 148 148 147 145 147 138 140 141 140 141 139 130 118 109 106
92 68 242 308 287 323 164 131 132 158 211 29 148 91 158 162 160 167 165 175 178 181 181 178 177 175 177 174 169 159 156 159 159 157 155 156 155 156 151 152 158 153 155 155 144 132 119 107 108
93 93 298 292 292 293 200 92 151 95 47 324 4 154 184 188 164 172 151 167 181 181 183 177 184 182 180 181 179 172 168 170 170 163 160 161 165 166 166 163 163 167 177 163 150 142 128 114 115
49 50 260 257 286 308 220 140 299 143 108 59 10 40 174 159 165 167 178 174 179 182 181 185 187 187 189 185 184 183 179 176 176 174 176 170 172 172 174 177 182 182 184 172 164 154 137 119 115
120 141 226 246 305 333 281 47 163 79 126 162 156 60 141 154 165 174 194 190 182 178 184 190 187 188 186 193 190 190 189 186 184 186 193 189 183 182 181 186 193 191 192 186 181 172 159 140 123
198 190 265 290 304 28 47 347 316 153 203 204 211 179 168 169 180 190 206 201 184 180 185 195 191 194 191 192 194 203 194 193 192 198 194 190 183 187 187 193 198 198 196 193 191 186 175 175 198
254 255 260 277 304 351 312 297 338 274 239 350 302 171 165 173 194 205 208 210 199 187 190 193 197 197 195 198 203 209 202 198 199 203 201 192 207 197 199 204 205 206 200 199 199 197 194 210 212
252 252 264 269 288 319 300 248 244 265 275 284 263 154 179 185 198 211 215 215 212 207 197 198 197 198 201 202 205 204 205 205 207 206 206 199 202 206 210 215 211 210 206 204 204 211 217 224 218
318 336 308 331 312 316 285 274 181 293 305 310 266 202 199 195 202 206 213 223 220 216 205 198 202 204 203 204 201 206 209 211 211 210 211 209 209 213 220 215 213 213 210 206 214 222 224 234 224
4 345 340 290 295 286 335 283 239 250 258 256 254 257 223 214 204 202 213 215 220 223 216 206 205 205 208 211 209 211 212 215 212 214 216 217 215 220 221 214 216 218 215 215 216 220 228 231 228
49 48 276 196 231 260 181 262 252 261 256 251 248 240 239 234 232 215 217 222 221 221 219 219 210 209 210 213 213 214 212 215 217 217 219 217 220 222 220 219 218 218 220 217 218 219 223 227 227
149 254 237 283 234 258 201 269 261 227 254 259 257 252 246 238 238 242 220 221 222 223 222 217 215 213 210 212 215 215 214 217 219 221 220 220 221 221 220 222 220 219 219 218 220 221 224 229 232
205 215 234 244 279 269 265 270 259 252 260 272 267 258 252 243 229 237 234 221 222 220 221 218 218 215 211 211 212 215 217 220 222 221 220 224 221 220 217 222 221 220 220 220 220 222 225 229 232
316 221 250 257 289 262 263 279 294 278 255 257 260 262 260 248 244 242 245 228 217 216 214 214 211 215 208 204 204 210 214 217 221 223 223 223 224 224 219 219 220 220 219 220 221 222 223 226 228
228 235 254 275 268 336 324 297 290 279 266 252 261 264 261 252 242 240 242 238 212 209 212 212 210 210 212 208 211 212 213 215 219 222 224 225 226 225 222 222 220 220 219 222 222 221 222 227 222
231 235 243 242 321 294 302 293 278 268 254 260 260 262 257 251 247 239 234 230 219 211 205 209 213 208 210 211 210 212 216 219 216 219 223 225 225 224 224 224 223 221 221 221 221 221 221 220 223
243 200 210 221 222 263 168 286 274 277 276 275 275 258 259 260 253 244 229 229 222 214 210 213 215 207 208 205 205 205 208 211 217 215 218 221 225 225 224 226 224 222 220 223 224 224 222 219 218
251 188 228 232 247 256 235 255 283 219 271 268 275 265 256 250 246 243 237 231 227 224 216 213 214 211 206 203 206 209 214 220 222 218 216 218 221 224 225 226 226 222 222 223 226 224 224 223 219
217 185 238 200 194 239 237 209 262 259 251 263 259 260 267 268 254 241 238 237 233 231 224 218 214 211 206 204 207 209 214 217 219 217 214 214 214 218 222 224 224 224 223 220 225 228 227 222 223
170 155 251 234 212 256 234 202 242 266 254 259 274 266 268 270 259 250 243 233 229 233 230 218 213 212 210 209 209 212 216 216 219 219 216 214 215 214 216 218 221 220 222 223 222 223 224 226 221
189 195 220 242 222 269 17 207 245 229 270 264 260 269 268 276 273 248 240 239 239 243 241 231 213 215 213 212 213 215 217 217 219 222 220 218 217 217 218 217 219 221 221 222 222 222 225 224 224
206 198 233 256 263 287 235 261 288 269 264 254 281 288 273 281 276 277 270 256 252 252 254 249 226 220 221 220 219 219 219 219 222 223 223 222 223 223 220 218 219 219 220 221 221 222 224 224 224
208 149 227 200 243 250 233 224 232 251 275 311 301 326 304 304 304 321 339 347 329 300 297 294 270 239 233 228 227 226 224 223 225 227 226 224 226 223 220 217 219 219 220 221 220 222 224 224 225
197 224 219 206 191 255 249 244 226 252 309 320 330 328 319 319 344 341 330 4 356 323 306 296 282 273 255 241 234 233 231 229 229 230 229 226 226 224 221 218 218 218 219 221 218 221 222 221 224
207 215 212 223 234 239 304 270 237 288 295 315 333 338 357 350 339 332 331 339 330 311 292 285 291 277 270 265 250 236 236 233 231 231 230 230 228 225 224 219 216 220 219 220 218 220 221 221 222